CZ-2C DEB

基本信息
目录编号:
28481
目录名称:
CZ-2C DEB
国际标识:
2004-046C
轨道中心:
EARTH
物体状态:
在轨
发射日期:
2004-11-18 UTC
轨道信息
数据来源: 国际轨道数据
星历时间: 2026-07-14T03:37:50+0800
半长轴: 7089.638km
偏心率: 0.0099499
轨道倾角: 98.011°
近地点辐角: 31.610°
升交点赤经: 186.410°
平近点角: 87.132°
近地点: 640.959km
远地点: 782.043km
周期: 99.014分钟
每日圈数: 14.543425
详细信息
发射场:
XSC
轨道高度:
LEO
数据来源:
AOE Integration Group
参考系:
TEME
时间系统:
UTC
历元类型:
SGP4
2D轨道图
3D轨道图
轨道高度分析图
轨道倾角分析图
轨道综合分析图
查看轨道综合分析图